SCP
0 0 0 0 0 1 1 1 1 0 0 1 2 1 1 1 1 1 1 0 0 0 0 0 1 0 0 0 0 0 0 0
0 0 0 0 0 0 1 1 1 1 1 0 1 1 1 1 1 1 1 0 0 0 0 0 0 0 0 0 0 0 0 0
0 0 0 0 0 0 1 1 1 1 1 1 1 1 1 1 1 1 1 0 0 0 0 0 0 0 0 0 0 0 0 0
0 0 0 0 0 0 0 1 0 1 0 1 1 1 1 1 1 0 0 0 0 0 0 0 0 0 0 0 0 0 0 0
0 0 0 0 0 0 0 1 1 1 0 1 2 2 1 1 1 0 0 0 0 0 0 0 0 0 0 0 0 0 0 0
0 0 0 0 0 0 0 1 1 1 1 1 2 2 2 1 1 1 0 1 0 0 0 0 0 0 0 0 0 0 0 0
0 0 0 0 0 0 0 1 1 1 1 1 2 3 2 1 1 1 1 1 1 1 0 0 0 0 0 0 0 0 0 0
0 0 0 0 0 0 0 1 1 1 1 3 2 2 1 1 1 1 1 1 1 1 0 0 0 0 0 0 0 0 0 0
0 0 0 0 0 0 0 1 2 3 2 4 3 2 1 0 0 1 1 1 1 0 0 0 0 0 0 0 0 0 0 0
0 0 0 0 0 0 0 2 3 3 3 3 3 2 1 0 0 0 0 0 0 0 0 0 0 0 0 0 0 0 0 0
0 0 0 0 0 1 2 2 3 3 1 1 1 1 0 0 0 0 0 0 0 0 0 0 0 0 0 0 0 0 0 0
0 0 0 0 0 2 3 2 2 2 1 1 1 1 0 0 0 0 0 0 0 0 0 0 0 0 0 0 0 0 0 0
-0 0 0 0 1 1 1 1 1 1 1 1 0 0 0 0 0 0 0 0 0 0 0 0 0 0 0 0 0 0 0 0
-0 0 0 0 0 1 1 1 1 1 0 0 0 0 0 0 0 0 0 0 0 0 0 0 0 0 0 0 0 0 0 0
0 0 0 0 0 0 0 0 0 0 0 0 0 0 0 0 0 0 0 0 0 0 0 0 0 0 0 0 0 0 0 0
0 0 0 0 0 0 0 0 0 0 0 0 0 0 0 0 0 0 0 0 0 0 0 0 0 0 0 0 0 0 0 -0
-0 -0 0 0 0 0 0 0 0 0 0 0 0 0 0 0 0 0 0 0 0 0 0 0 -0 0 0 0 0 0 0 -0
-0 -0 -0 0 0 0 0 0 0 0 0 0 0 0 0 0 0 0 0 0 0 0 0 0 0 0 0 0 0 0 0 0
-0 -0 0 0 0 0 0 0 0 0 0 0 0 0 0 0 0 0 0 0 0 0 -0 -0 0 0 0 0 0 0 0 0
-0 -0 -0 0 -0 -0 0 0 0 0 0 0 0 0 0 0 0 0 0 -0 -0 -0 -0 -0 -0 0 0 -0 0 0 0 -0
Wind_Speed_500mb
51 45 45 40 38 39 38 39 59 70 77 78 82 81 81 78 75 70 64 55 48 42 37 32 22 20 21 20 20 18 15 13
41 48 46 44 43 48 45 46 48 65 78 76 77 83 86 82 83 77 69 62 54 46 40 35 26 27 23 21 24 19 19 16
62 64 60 55 50 48 54 54 43 50 67 73 79 79 83 80 81 79 72 64 57 46 40 35 31 31 30 29 30 28 27 25
70 69 61 67 62 60 56 53 42 43 52 66 79 82 79 77 74 73 66 57 55 47 37 33 36 36 33 32 36 36 34 32
70 81 74 68 62 68 59 52 42 43 44 50 66 84 80 72 60 54 50 42 39 36 33 35 36 33 37 37 38 39 43 43
96 90 81 77 65 51 60 58 44 42 45 52 59 79 80 69 57 51 49 40 38 34 33 32 32 42 45 43 37 38 44 50
93 90 85 80 54 43 57 49 39 43 45 52 63 76 76 63 54 49 48 42 39 29 35 26 32 41 39 38 40 41 42 45
95 90 83 82 54 46 62 43 36 42 44 57 68 74 65 56 51 49 44 41 33 31 30 31 33 34 40 42 41 39 40 39
78 77 72 54 45 39 49 46 39 42 56 65 70 74 62 54 49 48 45 33 31 30 31 30 32 38 41 36 36 36 35 33
69 50 47 53 54 51 52 57 47 50 61 66 75 70 56 47 48 41 28 35 37 34 30 29 34 40 38 36 34 35 33 28
72 59 53 61 63 55 46 48 51 60 60 65 68 65 50 45 42 39 29 28 30 29 30 35 34 38 35 32 25 24 21 24
77 73 73 69 56 40 42 45 48 56 53 56 59 68 62 53 40 32 35 33 32 35 37 31 30 30 24 19 17 19 22 24
74 64 69 60 43 42 42 40 41 48 40 42 47 49 50 41 34 39 38 39 38 33 29 27 23 18 15 14 15 17 20 23
69 69 51 47 48 43 38 36 41 37 35 36 40 45 42 41 37 40 37 32 27 28 28 26 19 13 10 10 11 10 11 16
47 34 45 57 51 44 40 42 44 42 42 45 42 41 37 36 37 33 30 24 21 23 26 20 15 10 8 9 9 7 10 11
36 49 57 54 48 44 47 47 52 50 47 45 43 41 30 35 33 27 18 19 20 21 15 14 11 10 11 11 8 9 8 11
53 54 52 49 45 47 52 52 55 52 50 46 41 31 31 28 24 19 15 16 17 13 11 6 4 4 9 13 12 13 12 10
55 54 48 43 43 48 51 54 55 52 46 41 32 24 21 20 16 16 14 13 16 14 10 8 3 4 8 12 13 14 11 15
60 52 46 45 49 55 57 56 52 47 38 31 27 25 14 10 5 12 13 19 16 18 11 8 5 5 7 8 12 12 16 17
58 55 53 53 55 53 52 53 48 42 36 32 27 19 13 8 7 10 22 22 21 13 3 3 7 13 8 9 14 19 17 16
Wind_Direction_500mb
290 280 281 283 281 275 265 250 238 239 238 229 229 228 230 232 234 233 235 237 239 244 254 256 255 261 275 278 286 284 296 299
287 263 266 271 264 267 268 268 233 233 238 234 235 232 232 234 238 235 235 237 240 243 252 256 259 261 260 269 274 268 271 269
295 288 284 276 261 260 263 263 246 238 236 236 236 239 235 236 241 237 237 240 243 244 253 253 260 261 255 277 279 267 262 268
288 278 280 281 264 267 263 248 251 248 247 242 242 239 239 238 241 240 241 246 247 244 245 252 253 258 258 271 281 266 263 263
280 284 283 287 278 273 251 239 245 247 253 256 248 239 240 237 235 229 231 237 232 225 239 244 252 254 264 264 271 262 259 265
280 279 274 276 282 273 241 237 246 247 255 253 254 241 240 240 235 230 226 224 220 226 239 250 255 255 261 268 269 256 260 259
281 279 273 270 264 250 234 244 249 249 247 252 252 242 237 236 233 227 225 223 211 223 235 252 265 258 262 273 270 269 268 260
279 280 272 259 252 264 244 244 245 241 256 250 243 233 231 229 225 219 224 212 210 231 235 260 276 258 272 275 277 275 273 261
271 277 263 256 250 248 242 254 248 249 248 237 225 221 215 209 210 208 197 212 221 220 237 270 266 271 281 285 283 276 267 257
279 271 259 247 253 254 252 250 249 244 240 227 217 207 203 200 192 209 216 206 210 224 264 270 273 278 279 281 271 267 262 247
280 271 254 248 247 259 246 246 251 236 223 216 208 205 200 195 207 220 228 213 226 252 256 268 279 277 276 273 263 254 254 238
276 272 262 257 252 234 239 243 231 219 212 208 202 200 204 212 219 231 203 221 236 248 259 268 281 276 268 260 254 244 237 223
281 279 275 266 230 227 220 212 209 203 197 195 193 197 202 200 203 205 213 230 237 254 266 271 275 267 259 263 257 251 246 239
285 279 269 212 193 196 197 194 185 181 177 178 187 185 184 193 194 195 209 221 237 261 269 268 254 256 267 268 253 244 248 246
262 227 187 176 176 178 179 180 166 163 165 171 177 177 177 187 197 199 204 222 252 263 264 242 239 256 253 227 222 213 224 222
191 174 168 168 164 164 167 168 156 159 167 169 175 184 186 178 185 197 223 255 258 262 223 214 238 248 244 230 227 222 243 234
169 165 163 157 159 160 164 165 159 160 166 172 173 168 173 182 189 202 232 249 240 186 183 197 192 229 243 252 247 236 228 223
158 159 156 156 158 157 161 164 160 162 165 171 169 174 172 184 197 221 237 212 165 154 135 128 142 288 286 265 262 253 239 210
158 155 155 153 154 153 157 162 162 163 166 165 154 144 166 186 189 200 187 174 152 138 126 115 21 351 303 276 238 225 206 209
157 155 152 152 152 153 159 163 162 160 156 148 144 156 202 195 185 181 178 161 153 148 141 302 325 321 317 301 249 232 210 212
Wind_Speed_850mb
51 45 45 40 38 39 38 39 59 70 77 78 82 81 81 78 75 70 64 55 48 42 37 32 22 20 21 20 20 18 15 13
41 48 46 44 43 48 45 46 48 65 78 76 77 83 86 82 83 77 69 62 54 46 40 35 26 27 23 21 24 19 19 16
62 64 60 55 50 48 54 54 43 50 67 73 79 79 83 80 81 79 72 64 57 46 40 35 31 31 30 29 30 28 27 25
70 69 61 67 62 60 56 53 42 43 52 66 79 82 79 77 74 73 66 57 55 47 37 33 36 36 33 32 36 36 34 32
70 81 74 68 62 68 59 52 42 43 44 50 66 84 80 72 60 54 50 42 39 36 33 35 36 33 37 37 38 39 43 43
96 90 81 77 65 51 60 58 44 42 45 52 59 79 80 69 57 51 49 40 38 34 33 32 32 42 45 43 37 38 44 50
93 90 85 80 54 43 57 49 39 43 45 52 63 76 76 63 54 49 48 42 39 29 35 26 32 41 39 38 40 41 42 45
95 90 83 82 54 46 62 43 36 42 44 57 68 74 65 56 51 49 44 41 33 31 30 31 33 34 40 42 41 39 40 39
78 77 72 54 45 39 49 46 39 42 56 65 70 74 62 54 49 48 45 33 31 30 31 30 32 38 41 36 36 36 35 33
69 50 47 53 54 51 52 57 47 50 61 66 75 70 56 47 48 41 28 35 37 34 30 29 34 40 38 36 34 35 33 28
72 59 53 61 63 55 46 48 51 60 60 65 68 65 50 45 42 39 29 28 30 29 30 35 34 38 35 32 25 24 21 24
77 73 73 69 56 40 42 45 48 56 53 56 59 68 62 53 40 32 35 33 32 35 37 31 30 30 24 19 17 19 22 24
74 64 69 60 43 42 42 40 41 48 40 42 47 49 50 41 34 39 38 39 38 33 29 27 23 18 15 14 15 17 20 23
69 69 51 47 48 43 38 36 41 37 35 36 40 45 42 41 37 40 37 32 27 28 28 26 19 13 10 10 11 10 11 16
47 34 45 57 51 44 40 42 44 42 42 45 42 41 37 36 37 33 30 24 21 23 26 20 15 10 8 9 9 7 10 11
36 49 57 54 48 44 47 47 52 50 47 45 43 41 30 35 33 27 18 19 20 21 15 14 11 10 11 11 8 9 8 11
53 54 52 49 45 47 52 52 55 52 50 46 41 31 31 28 24 19 15 16 17 13 11 6 4 4 9 13 12 13 12 10
55 54 48 43 43 48 51 54 55 52 46 41 32 24 21 20 16 16 14 13 16 14 10 8 3 4 8 12 13 14 11 15
60 52 46 45 49 55 57 56 52 47 38 31 27 25 14 10 5 12 13 19 16 18 11 8 5 5 7 8 12 12 16 17
58 55 53 53 55 53 52 53 48 42 36 32 27 19 13 8 7 10 22 22 21 13 3 3 7 13 8 9 14 19 17 16
Wind_Direction_850mb
290 280 281 283 281 275 265 250 238 239 238 229 229 228 230 232 234 233 235 237 239 244 254 256 255 261 275 278 286 284 296 299
287 263 266 271 264 267 268 268 233 233 238 234 235 232 232 234 238 235 235 237 240 243 252 256 259 261 260 269 274 268 271 269
295 288 284 276 261 260 263 263 246 238 236 236 236 239 235 236 241 237 237 240 243 244 253 253 260 261 255 277 279 267 262 268
288 278 280 281 264 267 263 248 251 248 247 242 242 239 239 238 241 240 241 246 247 244 245 252 253 258 258 271 281 266 263 263
280 284 283 287 278 273 251 239 245 247 253 256 248 239 240 237 235 229 231 237 232 225 239 244 252 254 264 264 271 262 259 265
280 279 274 276 282 273 241 237 246 247 255 253 254 241 240 240 235 230 226 224 220 226 239 250 255 255 261 268 269 256 260 259
281 279 273 270 264 250 234 244 249 249 247 252 252 242 237 236 233 227 225 223 211 223 235 252 265 258 262 273 270 269 268 260
279 280 272 259 252 264 244 244 245 241 256 250 243 233 231 229 225 219 224 212 210 231 235 260 276 258 272 275 277 275 273 261
271 277 263 256 250 248 242 254 248 249 248 237 225 221 215 209 210 208 197 212 221 220 237 270 266 271 281 285 283 276 267 257
279 271 259 247 253 254 252 250 249 244 240 227 217 207 203 200 192 209 216 206 210 224 264 270 273 278 279 281 271 267 262 247
280 271 254 248 247 259 246 246 251 236 223 216 208 205 200 195 207 220 228 213 226 252 256 268 279 277 276 273 263 254 254 238
276 272 262 257 252 234 239 243 231 219 212 208 202 200 204 212 219 231 203 221 236 248 259 268 281 276 268 260 254 244 237 223
281 279 275 266 230 227 220 212 209 203 197 195 193 197 202 200 203 205 213 230 237 254 266 271 275 267 259 263 257 251 246 239
285 279 269 212 193 196 197 194 185 181 177 178 187 185 184 193 194 195 209 221 237 261 269 268 254 256 267 268 253 244 248 246
262 227 187 176 176 178 179 180 166 163 165 171 177 177 177 187 197 199 204 222 252 263 264 242 239 256 253 227 222 213 224 222
191 174 168 168 164 164 167 168 156 159 167 169 175 184 186 178 185 197 223 255 258 262 223 214 238 248 244 230 227 222 243 234
169 165 163 157 159 160 164 165 159 160 166 172 173 168 173 182 189 202 232 249 240 186 183 197 192 229 243 252 247 236 228 223
158 159 156 156 158 157 161 164 160 162 165 171 169 174 172 184 197 221 237 212 165 154 135 128 142 288 286 265 262 253 239 210
158 155 155 153 154 153 157 162 162 163 166 165 154 144 166 186 189 200 187 174 152 138 126 115 21 351 303 276 238 225 206 209
157 155 152 152 152 153 159 163 162 160 156 148 144 156 202 195 185 181 178 161 153 148 141 302 325 321 317 301 249 232 210 212